• In Deutschland
  • Länderverzeichnis
  • Für 7 Tage
  • Wassertemperatur
  • Satellitenkarten
  • Wetterkarte
  • Widgets
  • user-avatar
    Anmelden

    Stündliche Wetter Seli

    Heute, 16 August, Donnerstag

    Zeit Temperatur Niederschläge Wind Luftdruck Luftfeuchtigkeit
    00:00 +28°C° 0 mm 3 m/S 746 mmHg 48%
    01:00 +28°C° 0 mm 3 m/S 746 mmHg 49%
    02:00 +27°C° 0 mm 3 m/S 746 mmHg 51%
    03:00 +27°C° 0 mm 3 m/S 746 mmHg 51%
    04:00 +27°C° 0 mm 3 m/S 746 mmHg 51%
    05:00 +27°C° 0 mm 3 m/S 746 mmHg 51%
    06:00 +28°C° 0 mm 3 m/S 746 mmHg 50%
    07:00 +29°C° 0 mm 3 m/S 746 mmHg 48%
    08:00 +30°C° 0 mm 3 m/S 746 mmHg 47%
    09:00 +31°C° 0 mm 3 m/S 746 mmHg 45%
    10:00 +33°C° 0 mm 3 m/S 746 mmHg 43%
    11:00 +34°C° 0 mm 3 m/S 747 mmHg 42%
    12:00 +35°C° 0 mm 3 m/S 747 mmHg 41%
    13:00 +35°C° 0 mm 4 m/S 747 mmHg 40%
    14:00 +36°C° 0 mm 4 m/S 747 mmHg 39%
    15:00 +35°C° 0 mm 4 m/S 746 mmHg 39%
    16:00 +35°C° 0 mm 4 m/S 746 mmHg 40%
    17:00 +35°C° 0 mm 4 m/S 746 mmHg 41%
    18:00 +33°C° 0 mm 4 m/S 746 mmHg 45%
    19:00 +32°C° 0 mm 4 m/S 746 mmHg 50%
    20:00 +29°C° 0 mm 3 m/S 746 mmHg 54%
    21:00 +29°C° 0 mm 3 m/S 746 mmHg 56%
    22:00 +28°C° 0 mm 3 m/S 746 mmHg 58%
    23:00 +28°C° 0 mm 3 m/S 747 mmHg 59%

    Morgen, 17 August, Freitag

    Zeit Temperatur Niederschläge Wind Luftdruck Luftfeuchtigkeit
    00:00 +27°C° 0 mm 3 m/S 746 mmHg 62%
    01:00 +27°C° 0 mm 3 m/S 746 mmHg 64%
    02:00 +27°C° 0 mm 4 m/S 746 mmHg 67%
    03:00 +26°C° 0 mm 4 m/S 746 mmHg 69%
    04:00 +26°C° 0 mm 3 m/S 746 mmHg 72%
    05:00 +26°C° 0 mm 3 m/S 746 mmHg 74%
    06:00 +26°C° 0 mm 3 m/S 746 mmHg 71%
    07:00 +27°C° 0 mm 3 m/S 746 mmHg 69%
    08:00 +28°C° 0 mm 3 m/S 746 mmHg 66%
    09:00 +29°C° 0 mm 3 m/S 746 mmHg 62%
    10:00 +30°C° 0 mm 4 m/S 747 mmHg 58%
    11:00 +32°C° 0 mm 4 m/S 747 mmHg 53%
    12:00 +33°C° 0 mm 4 m/S 747 mmHg 53%
    13:00 +33°C° 0 mm 4 m/S 747 mmHg 52%
    14:00 +33°C° 0 mm 5 m/S 747 mmHg 51%
    15:00 +33°C° 0 mm 5 m/S 746 mmHg 52%
    16:00 +33°C° 0 mm 4 m/S 746 mmHg 52%
    17:00 +33°C° 0 mm 4 m/S 746 mmHg 52%
    18:00 +32°C° 0 mm 4 m/S 746 mmHg 55%
    19:00 +30°C° 0 mm 3 m/S 746 mmHg 58%
    20:00 +29°C° 0 mm 3 m/S 746 mmHg 61%
    21:00 +28°C° 0 mm 3 m/S 746 mmHg 61%
    22:00 +28°C° 0 mm 3 m/S 746 mmHg 61%
    23:00 +27°C° 0 mm 3 m/S 746 mmHg 62%

    übermorgen, 18 August, Samstag

    Zeit Temperatur Niederschläge Wind Luftdruck Luftfeuchtigkeit
    00:00 +27°C° 0 mm 3 m/S 746 mmHg 59%
    01:00 +27°C° 0 mm 3 m/S 746 mmHg 56%
    02:00 +27°C° 0 mm 3 m/S 746 mmHg 53%
    03:00 +26°C° 0 mm 3 m/S 746 mmHg 52%
    04:00 +26°C° 0 mm 3 m/S 745 mmHg 51%
    05:00 +26°C° 0 mm 3 m/S 745 mmHg 50%
    06:00 +27°C° 0 mm 3 m/S 745 mmHg 48%
    07:00 +29°C° 0 mm 3 m/S 746 mmHg 46%
    08:00 +30°C° 0 mm 3 m/S 746 mmHg 43%
    09:00 +31°C° 0 mm 3 m/S 746 mmHg 40%
    10:00 +33°C° 0 mm 3 m/S 746 mmHg 38%
    11:00 +34°C° 0 mm 3 m/S 746 mmHg 35%
    12:00 +35°C° 0 mm 4 m/S 746 mmHg 35%
    13:00 +35°C° 0 mm 4 m/S 746 mmHg 35%
    14:00 +36°C° 0 mm 4 m/S 746 mmHg 36%
    15:00 +35°C° 0 mm 4 m/S 746 mmHg 35%
    16:00 +35°C° 0 mm 4 m/S 746 mmHg 35%
    17:00 +35°C° 0 mm 4 m/S 746 mmHg 34%
    18:00 +33°C° 0 mm 4 m/S 746 mmHg 39%
    19:00 +32°C° 0 mm 4 m/S 746 mmHg 44%
    20:00 +29°C° 0 mm 3 m/S 746 mmHg 49%
    21:00 +29°C° 0 mm 4 m/S 746 mmHg 51%
    22:00 +28°C° 0 mm 4 m/S 746 mmHg 53%
    23:00 +28°C° 0 mm 4 m/S 746 mmHg 55%

    19 August, Sonntag

    Zeit Temperatur Niederschläge Wind Luftdruck Luftfeuchtigkeit
    00:00 +27°C° 0 mm 4 m/S 746 mmHg 56%
    01:00 +27°C° 0 mm 4 m/S 745 mmHg 57%
    02:00 +27°C° 0 mm 4 m/S 745 mmHg 57%
    03:00 +27°C° 0 mm 4 m/S 745 mmHg 57%
    04:00 +27°C° 0 mm 4 m/S 745 mmHg 57%
    05:00 +26°C° 0 mm 4 m/S 745 mmHg 56%
    06:00 +28°C° 0 mm 4 m/S 745 mmHg 52%
    07:00 +29°C° 0 mm 4 m/S 745 mmHg 47%
    08:00 +32°C° 0 mm 4 m/S 745 mmHg 42%
    09:00 +33°C° 0 mm 5 m/S 745 mmHg 40%
    10:00 +34°C° 0 mm 5 m/S 745 mmHg 38%
    11:00 +35°C° 0 mm 6 m/S 745 mmHg 36%
    12:00 +35°C° 0 mm 6 m/S 745 mmHg 37%
    13:00 +35°C° 0 mm 6 m/S 745 mmHg 38%
    14:00 +35°C° 0 mm 6 m/S 745 mmHg 39%
    15:00 +34°C° 0 mm 6 m/S 745 mmHg 41%
    16:00 +34°C° 0 mm 6 m/S 745 mmHg 43%
    17:00 +33°C° 0 mm 6 m/S 744 mmHg 44%
    18:00 +32°C° 0 mm 6 m/S 744 mmHg 50%
    19:00 +29°C° 0 mm 5 m/S 744 mmHg 56%
    20:00 +28°C° 0 mm 5 m/S 744 mmHg 62%
    21:00 +28°C° 0 mm 6 m/S 744 mmHg 61%
    22:00 +28°C° 0 mm 6 m/S 744 mmHg 60%
    23:00 +28°C° 0 mm 7 m/S 744 mmHg 60%

    20 August, Montag

    Zeit Temperatur Niederschläge Wind Luftdruck Luftfeuchtigkeit
    00:00 +28°C° 0 mm 7 m/S 744 mmHg 61%
    01:00 +28°C° 0 mm 7 m/S 744 mmHg 61%
    02:00 +28°C° 0 mm 7 m/S 743 mmHg 62%
    03:00 +27°C° 0 mm 7 m/S 743 mmHg 65%
    04:00 +27°C° 0 mm 7 m/S 743 mmHg 68%
    05:00 +27°C° 0 mm 7 m/S 743 mmHg 70%
    06:00 +28°C° 0 mm 7 m/S 743 mmHg 66%
    07:00 +29°C° 0 mm 7 m/S 743 mmHg 63%
    08:00 +30°C° 0 mm 7 m/S 744 mmHg 59%
    09:00 +32°C° 0 mm 7 m/S 744 mmHg 55%
    10:00 +33°C° 0 mm 7 m/S 744 mmHg 51%
    11:00 +34°C° 0 mm 7 m/S 745 mmHg 46%
    12:00 +35°C° 0 mm 7 m/S 744 mmHg 45%
    13:00 +35°C° 0 mm 7 m/S 744 mmHg 44%
    14:00 +35°C° 0 mm 7 m/S 744 mmHg 43%
    15:00 +35°C° 0 mm 7 m/S 744 mmHg 44%
    16:00 +34°C° 0 mm 7 m/S 744 mmHg 44%
    17:00 +34°C° 0 mm 7 m/S 745 mmHg 45%
    18:00 +32°C° 0 mm 7 m/S 745 mmHg 51%
    19:00 +30°C° 0 mm 6 m/S 745 mmHg 56%
    20:00 +29°C° 0 mm 6 m/S 745 mmHg 62%
    21:00 +29°C° 0 mm 6 m/S 745 mmHg 63%
    22:00 +28°C° 0 mm 6 m/S 746 mmHg 65%
    23:00 +28°C° 0 mm 6 m/S 746 mmHg 66%

    21 August, Dienstag

    Zeit Temperatur Niederschläge Wind Luftdruck Luftfeuchtigkeit
    00:00 +28°C° 0 mm 6 m/S 746 mmHg 66%
    01:00 +28°C° 0 mm 6 m/S 745 mmHg 65%
    02:00 +28°C° 0 mm 6 m/S 745 mmHg 64%
    03:00 +27°C° 0 mm 6 m/S 745 mmHg 65%
    04:00 +27°C° 0 mm 6 m/S 745 mmHg 66%
    05:00 +27°C° 0 mm 6 m/S 745 mmHg 67%
    06:00 +28°C° 0 mm 6 m/S 746 mmHg 62%
    07:00 +29°C° 0 mm 6 m/S 746 mmHg 58%
    08:00 +30°C° 0 mm 6 m/S 746 mmHg 53%
    09:00 +32°C° 0 mm 6 m/S 746 mmHg 50%
    10:00 +33°C° 0 mm 6 m/S 747 mmHg 47%
    11:00 +34°C° 0 mm 6 m/S 747 mmHg 44%
    12:00 +34°C° 0 mm 6 m/S 747 mmHg 43%
    13:00 +35°C° 0 mm 6 m/S 747 mmHg 43%
    14:00 +35°C° 0 mm 6 m/S 747 mmHg 42%
    15:00 +35°C° 0 mm 6 m/S 747 mmHg 42%
    16:00 +35°C° 0 mm 6 m/S 747 mmHg 42%
    17:00 +34°C° 0 mm 5 m/S 747 mmHg 43%
    18:00 +33°C° 0 mm 5 m/S 747 mmHg 47%
    19:00 +30°C° 0 mm 5 m/S 747 mmHg 52%
    20:00 +29°C° 0 mm 4 m/S 747 mmHg 57%
    21:00 +29°C° 0 mm 4 m/S 747 mmHg 58%
    22:00 +28°C° 0 mm 4 m/S 747 mmHg 58%
    23:00 +28°C° 0 mm 4 m/S 747 mmHg 59%
    Mehr zeigen